Location: �quirre
(50.4736°N, 2.2351°E)
Time: 09:31:21
(UTC+00:00)

SL-16 R/B - Pass Details

Date: 07 August 2020
Orbit: 840 x 849 km, 71.0° (Epoch: 20 September)

Event Time Altitude Azimuth Distance (km) Brightness Sun altitude
Rises 01:57:54 0° 330° (NNW) 3,425 5.8 -18.1°
Reaches altitude 10° 02:00:22 10° 329° (NNW) 2,486 5.0 -17.9°
Maximum altitude 02:06:05 84° 243° (WSW) 860 2.1 -17.4°
Drops below altitude 10° 02:11:46 10° 156° (SSE) 2,467 4.3 -16.9°
Enters shadow 02:13:07 - 155° (SSE) 2,984 4.8 -16.8°
